sat.trackr.live / text

‹ back to catalog

STARLINK-32572

NORAD 61952 · 2024-209P

PAYLOAD ACTIVE UNKNOWN

§ Identity

Operator
Country
US
Launch date
2024-11-14
Launch site
AFWTR
Launch vehicle
Mass (kg)
RCS (m²)

Purposes: comms

External: N2YO · Heavens-Above · Gunter

§ Orbital elements

Epoch: 2026-09-21T09:51:38.863872Z

Period
93.85 min
Inclination
53.1594°
Eccentricity
0.0001337
Mean motion
15.34406568 rev/d
Perigee alt
461.8 km
Apogee alt
463.6 km
Semi-major
6,840.8 km
B*
6.6145e-4
RAAN
311.1123°
Arg perigee
74.2431°
Mean anomaly
285.8719°
Rev number
10,489

§ Raw data

STARLINK-325721 61952U 24209P   26264.41086648  .00022042  00000+0  66145-3 0  99912 61952  53.1594 311.1123 0001337  74.2431 285.8719 15.34406568104893

JSON: /api/v1/satellites/61952 · /tle

For live sub-satellite position, see the globe view (requires WebGL).

§ Visibility from observer

Set your observer location to see the next 7 days of passes ≥ 10°. The values pass through the URL so the page stays shareable.

No JS? Fill the form by hand. The geolocation button needs JavaScript.